Location: Baia Mare
(47.6567°N, 23.5850°E)
Time: 20:17:09
(UTC+02:00)

ISS - Pass Details

Date: 27 February 2020
Orbit: 417 x 420 km, 51.6° (Epoch: 28 October)

Event Time Altitude Azimuth Distance (km) Brightness Sun altitude
Exits shadow 05:27:23 49° 212° (SSW) 557 -3.5 -18.3°
Maximum altitude 05:28:06 67° 152° (SSE) 464 -3.6 -18.2°
Drops below altitude 10° 05:31:31 10° 69° (ENE) 1,521 0.3 -17.6°
Sets 05:33:38 0° 67° (ENE) 2,389 1.5 -17.2°
